Flag for Kazakhstan Weather past 2 weeks in Aqtobe, Kazakhstan

Now
23 °F

Passing clouds.


Feels Like: 18 °F
Forecast: 10 / 21 °F
Wind: 3 mph from Southeast

Location: Aktjubinsk

Current Time: Mar 1, 2015 at 6:43:33 PM

Latest Report: Mar 1, 2015 at 6:00 PM


Visibility: N/A

Pressure: 30.45 "Hg

Humidity: 86%

Dew point: 19 °F

Location of AqtobeLocation

Historic Weather in Aqtobe — Graph

°F

Aqtobe temperature yesterday

Maximum temperature yesterday: 19 °F (at 3:30 PM)
Minimum temperature yesterday: -2 °F (at 4:30 AM)
Average temperature yesterday: 6 °F

Past Weeks' High & Low Weather Summary

 TemperatureHumidityPressure
High32 °F (Feb 25, 5:00 PM)100% (Feb 23, 1:30 AM)30.74 "Hg (Feb 23, 1:30 AM)
Low-13 °F (Feb 21, 6:00 AM)69% (Feb 24, 3:30 PM)29.92 "Hg (Feb 16, 6:30 AM)
Average8 °F86%30.34 "Hg
* Reported Feb 14 5:00 PM — Mar 1 5:30 PM, Aqtobe, Weather by CustomWeather, © 2015

Note: Actual official high and low records may vary slightly from our data, if they occured in-between our weather recording intervals... More about our weather records

Advertising

Aqtobe weather history for previous 24 hours

 ConditionsComfort  
Time TempWeatherWind HumidityBarometerVisibility
5:30 PM
Sun, Mar 1
23 °FSunny.6 mph80%30.45 "Hg10 mi
5:00 PM23 °FSunny.3 mph80%30.45 "Hg10 mi
4:30 PM25 °FSunny.6 mph74%30.45 "Hg10 mi
4:00 PM25 °FSunny.6 mph80%30.45 "Hg10 mi
3:30 PM25 °FSunny.6 mph74%30.45 "Hg10 mi
3:00 PM27 °FSunny.8 mph74%30.45 "Hg10 mi
2:30 PM21 °FSunny.6 mph80%30.45 "Hg10 mi
2:00 PM19 °FSunny.6 mph73%30.48 "Hg10 mi
1:30 PM18 °FSunny.6 mph73%30.48 "Hg10 mi
1:00 PM16 °FClear.3 mph79%30.48 "HgN/A
12:30 PM14 °FClear.3 mph85%30.48 "Hg5 mi
12:00 PM10 °FClear.3 mph92%30.51 "Hg4 mi
11:30 AM9 °FClear.3 mph92%30.51 "Hg4 mi
11:00 AM9 °FClear.1 mph85%30.51 "Hg5 mi
10:30 AM3 °FClear.1 mph92%30.51 "Hg3 mi
10:00 AM-2 °FClear.1 mph84%30.51 "Hg6 mi
9:30 AM-2 °FClear.1 mph84%30.51 "Hg5 mi
9:00 AM-4 °FIce fog.1 mph84%30.51 "Hg2 mi
8:30 AM-8 °FIce fog.1 mph84%30.51 "Hg2 mi
8:00 AM-9 °FIce fog.1 mph84%30.51 "Hg2 mi
7:30 AM-9 °FIce fog.1 mph84%30.51 "Hg0 mi
7:00 AM-8 °FIce fog.1 mph84%30.51 "Hg0 mi
6:30 AM-8 °FIce fog.1 mph84%30.51 "Hg0 mi
6:00 AM-8 °FIce fog.1 mph84%30.51 "Hg0 mi
5:30 AM-6 °FIce fog.No wind84%30.51 "Hg0 mi
5:00 AM-6 °FIce fog.No wind84%30.51 "Hg0 mi
4:30 AM-6 °FIce fog.No wind84%30.51 "Hg0 mi
4:00 AM-2 °FIce fog.1 mph84%30.51 "Hg0 mi
3:30 AM-4 °FIce fog.1 mph84%30.51 "Hg1 mi
3:00 AM-2 °FIce fog.No wind92%30.51 "Hg2 mi
2:30 AM-2 °FIce fog.No wind84%30.51 "Hg1 mi
2:00 AM0 °FIce fog.1 mph84%30.51 "Hg2 mi
1:30 AM1 °FIce fog.1 mph85%30.51 "Hg3 mi
1:00 AM0 °FIce fog.1 mph92%30.51 "Hg3 mi
12:30 AM1 °FIce fog.1 mph92%30.51 "Hg2 mi
12:00 AM1 °FIce fog.3 mph92%30.51 "Hg2 mi
11:30 PM
Sat, Feb 28
0 °FClear.3 mph92%30.51 "Hg4 mi
11:00 PM-2 °FIce fog.3 mph92%30.54 "Hg0 mi
10:30 PM0 °FClear.1 mph92%30.54 "Hg10 mi
10:00 PM1 °FClear.1 mph92%30.54 "Hg10 mi
9:30 PM1 °FClear.1 mph92%30.54 "Hg10 mi
9:00 PM5 °FClear.3 mph92%30.54 "Hg10 mi
8:30 PM7 °FClear.3 mph85%30.54 "Hg10 mi
8:00 PM9 °FClear.6 mph85%30.54 "Hg10 mi
7:30 PM9 °FClear.6 mph85%30.54 "Hg10 mi
7:00 PM9 °FClear.3 mph92%30.54 "Hg10 mi
6:30 PM12 °FSunny.6 mph85%30.54 "Hg10 mi
6:00 PM16 °FSunny.3 mph79%30.54 "Hg10 mi
Weather by CustomWeather, © 2015

See weather overviewHow to use our weather pages